Regional Weather Roundup
Issued by NWS Charleston, SC

Current Version | Previous Version | Text Only | Print | Product List | Glossary Off
Versions: 1 2 3 4 5 6 7 8 9 10 11 12 13 14 15 16 17 18 19 20 21 22 23 24 25 26 27 28 29 30 31 32 33 34 35 36 37 38 39 40 41 42 43 44 45 46 47 48 49 50

000
ASUS42 KCHS 061627
RWRCHS

REGIONAL WEATHER ROUNDUP
NATIONAL WEATHER SERVICE CHARLESTON SC
1200 PM EDT WED MAY 06 2015

NOTE: "FAIR" INDICATES FEW OR NO CLOUDS BELOW 12,000 FEET WITH NO
SIGNIFICANT WEATHER AND/OR OBSTRUCTIONS TO VISIBILITY.

NOT ALL STATIONS ARE QUALITY CONTROLLED BY THE NATIONAL
WEATHER SERVICE. USE DATA WITH CAUTION...ESPECIALLY
DEWPOINT OBSERVATIONS.

SCZ027-030-031-034>040-042>050-061700-
...SOUTHEAST SOUTH CAROLINA...

CITY           SKY/WX    TMP DP  RH WIND       PRES   REMARKS
N CHARLESTON   MOSUNNY   79  58  48 NE15G23   30.17S
WATERFRONT PRK   N/A     73  63  68 NE15        N/A
MOUNT PLEASANT FAIR      79  63  57 MISG      30.16S
PINOPOLIS      NOT AVBL
MONCKS CORNER  FAIR      79  57  47 NE8       30.17F
SUMMERVILLE    FAIR      79  61  53 NE5       30.18F
BEAUFORT MCAS  PTSUNNY   78  63  59 NE13      30.17S
BEAUFORT ARPT  FAIR      77  63  61 NE12      30.15F
HILTON HEAD IS PTSUNNY   75  63  64 NE9G16    30.17S
WALTERBORO     PTSUNNY   75  57  53 NE12      30.18F
ALLENDALE      FAIR      77  57  50 NE9       30.18F

...SOUTHERN MIDLANDS AND PEE DEE...

CITY           SKY/WX    TMP DP  RH WIND       PRES   REMARKS
GEORGETOWN     NOT AVBL
KINGSTREE      NOT AVBL
ORANGEBURG     PTSUNNY   77  51  40 NE12      30.20F
BARNWELL       FAIR      79  55  44 E10       30.20F
AIKEN          FAIR      73  54  49 E7        30.24F
MANNING        FAIR      75  50  41 NE10G16   30.19F
COLUMBIA       PTSUNNY   78  54  43 N10       30.20F
SUMTER         PTSUNNY   75  57  53 E10       30.19F
FLORENCE       PTSUNNY   76  54  46 E9        30.21F
MYRTLE BEACH   MOSUNNY   75  57  53 E13G18    30.21S
N MYRTLE BEACH MOSUNNY   76  57  51 E9        30.19F

$$

GAZ063-065-086>088-099>101-113>116-118-119-134>141-150-061700-
...SOUTHEAST GEORGIA...

CITY           SKY/WX    TMP DP  RH WIND       PRES   REMARKS
SAVANNAH ARPT  CLOUDY    76  62  62 E10       30.17S
HUNTER AAF     CLOUDY    75  64  67 NE10      30.14S
FORT STEWART   PTSUNNY   76  62  61 NE8       30.14S
STATESBORO       N/A     75  62  62 E10G16    30.18F
SYLVANIA       PTSUNNY   75  61  62 NE9       30.19F
CLAXTON        FAIR      73  63  68 NE7       30.17F

...CSRA...CENTRAL AND FAR SOUTHEAST GEORGIA...

CITY           SKY/WX    TMP DP  RH WIND       PRES   REMARKS
THOMSON        MOSUNNY   78  61  54 E8        30.25F
AUGUSTA-BUSH   PTSUNNY   77  54  44 NE10      30.20F
AUGUSTA-DANIEL PTSUNNY   78  54  43 NE9       30.21F
SWAINSBORO     FAIR      77  46  33 E5        30.19F
VIDALIA        PTSUNNY   77  61  57 NE9G17    30.17F
EASTMAN        FAIR      78  58  50 E10       30.20F
HAZLEHURST     FAIR      77  57  49 NE9       30.16F
ALMA           MOSUNNY   77  62  59 VRB5      30.16S
WAYCROSS       PTSUNNY   83  67  58 NE12      30.13F
JESUP          CLOUDY    77  66  69 E9        30.16S
BAXLEY         PTSUNNY   79  63  57 NE9G16    30.15F
BRUNSWICK      CLOUDY    73  61  64 NE7G16    30.15F
SAINT SIMONS   CLOUDY    71  65  81 N12       30.14S

$$

SCZ027-028-034-036>038-045-046-048>050-GAZ119-141-061700-
...LAKE AND SUPPLEMENTAL COASTAL OBSERVATIONS...

STATION/POSITION TIME  TEMP    WIND        PRES    WAVE   SWELL
                       AIR SEA DIR/SP/G            HT/PER HT/PER/DIR
                 (UTC) (F)     (DEG/KT/KT) (MB)    (FT/S) (FT/S/D)
UPR LAKE MARION  NOT AVBL
WINYAH BAY       1500   71      50/ 14     1021.0
LAKE MURRAY      1600   74      CALM  /  3 1022.4F
ACE BASIN NERRS  1545   78      60/  6     1021.0
FORT PULASKI     1500   72 72   30/ 10/ 13 1021.7S
SAPELO ISLAND    1600   74      30/ 13     1021.0S

$$

ANZ835-935-AMZ111-154-330-350-352-354-370-450-454-472-061700-
...C-MAN AND BUOY OBSERVATIONS...

STATION/POSITION TIME  TEMP    WIND        PRES    WAVE   SWELL
                       AIR SEA DIR/SP/G            HT/PER HT/PER/DIR
                 (UTC) (F)     (DEG/KT/KT) (MB)    (FT/S) (FT/S/D)
BUOY 41004       1550   73 73   50/ 19/ 23 1019.7S   6/ 8   3/ 8
BUOY 41008       1550   70 70   20/ 14/ 17 1020.4R   6/ 8   3/110/ 8
FOLLY BEACH CMAN 1600   72      40/ 18/ 20 1021.4F
CAPERS NEARSHORE 1508   71      50/ 17/ 23 1021.5F
FRIPP NEARSHORE  1500   72      60/ 16/ 21 1020.4F


STATION/POSITION TIME  TEMP    WIND        PRES    WAVE   SWELL
                       AIR SEA DIR/SP/G            HT/PER HT/PER/DIR
                 (UTC) (F)     (DEG/KT/KT) (MB)    (FT/S) (FT/S/D)
5E ST. MARYS GA  1521      71                N/A     5/ 5
FRYING PAN BUOY  1550   73 71   80/ 16/ 19 1022.3F   5/ 7   2/150/ 8
BUOY 41025       1550   71 74  100/ 10/ 12 1024.2F   3/11   3/ 70/11
CAPE LOOKOUT NC  1600   68      40/ 11/ 12 1023.1F
BUOY 41002       1550   67 70   80/ 27/ 35 1019.4F   9/ 7
BUOY 41010       1520   71 78   20/ 16/ 19 1016.5R
ST AUGUSTINE FL  1600   71 72  360/ 17/ 19 1020.0R


$$


USA.gov is the U.S. government's official web portal to all federal, state and local government web resources and services.